Date String (YYYY-MM-DD hh:mm:ss) UTC,Instrument flags,absolute air pressure of the measurement (hPa),sample flow rate (lpm),inlet stack bypass flow (lpm),air temperature of the measurement (°C),ambient temperature measured by the external sensor (°C),aerosol sample conditioner tube jacket temperature (°C),OPC LED temperature (°C),internal box temperature (°C),relative humidity of the measurement (%),span deviation,mass concentration of particles derived from Lorenz-Mie calculation of OPC scattering (μg/m³),mass concentration of particles derived from Lorenz-Mie calculation of OPC scattering (μg/m³),mass concentration of particles derived from Lorenz-Mie calculation of OPC scattering (μg/m³)
DateTimeUTC,F1_M11,P_M11,Q1_M11,Q2_M11,T1_M11,T2_M11,T3_M11,T4_M11,T5_M11,U1_M11,ZSPAN_M11,X0_M11,X2_M11,X1_M11
2023-11-08 19:00:00,SystemResetWarning,0832.2,5.00,000.00,025.9,024.6,000.0,034.4,027.2,18.3,0000.0,0004.63,0002.26,0001.81
2023-11-08 19:01:00,SystemResetWarning,0832.2,5.00,000.00,025.9,024.6,000.0,034.4,027.2,18.3,0000.0,0004.73,0002.30,0001.82
2023-11-08 19:02:00,SystemResetWarning,0832.2,5.00,000.00,025.9,024.6,000.0,034.4,027.2,18.3,0000.0,0004.43,0002.26,0001.81
2023-11-08 19:03:00,SystemResetWarning,0832.2,5.00,000.00,025.9,024.6,000.0,034.4,027.2,18.3,0000.0,0004.21,0002.27,0001.81
2023-11-08 19:04:00,SystemResetWarning,0832.2,5.00,000.00,025.8,024.5,000.0,034.3,027.2,18.3,0000.0,0004.15,0002.25,0001.81
2023-11-08 19:05:00,SystemResetWarning,0832.2,5.01,000.00,025.8,024.5,000.0,034.3,027.1,18.3,0000.0,0004.17,0002.25,0001.81
2023-11-08 19:06:00,SystemResetWarning,0832.2,5.00,000.00,025.8,024.5,000.0,034.3,027.2,18.3,0000.0,0004.17,0002.25,0001.81
2023-11-08 19:07:00,SystemResetWarning,0832.2,5.00,000.00,025.8,024.5,000.0,034.3,027.1,18.2,0000.0,0004.12,0002.22,0001.81
2023-11-08 19:08:00,SystemResetWarning,0832.2,5.00,000.00,025.8,024.5,000.0,034.3,027.1,18.3,0000.0,0003.62,0002.21,0001.81
2023-11-08 19:09:00,SystemResetWarning,0832.2,4.99,000.00,025.8,024.5,000.0,034.3,027.1,18.3,0000.0,0003.27,0002.19,0001.82
2023-11-08 19:10:00,SystemResetWarning,0832.2,4.99,000.00,025.8,024.4,000.0,034.3,027.1,18.4,0000.0,0003.23,0002.19,0001.83
2023-11-08 19:11:00,SystemResetWarning,0832.1,5.01,000.00,025.7,024.4,000.0,034.3,027.1,18.4,0000.0,0003.27,0002.22,0001.85
2023-11-08 19:12:00,SystemResetWarning,0832.2,5.01,000.00,025.7,024.4,000.0,034.3,027.1,18.5,0000.0,0003.15,0002.20,0001.86
2023-11-08 19:13:00,SystemResetWarning,0832.2,5.00,000.00,025.7,024.4,000.0,034.2,027.0,18.5,0000.0,0003.51,0002.25,0001.87
2023-11-08 19:14:00,SystemResetWarning,0832.1,5.00,000.00,025.7,024.4,000.0,034.2,027.0,18.6,0000.0,0003.46,0002.25,0001.87
2023-11-08 19:15:00,SystemResetWarning,0832.2,5.00,000.00,025.7,024.4,000.0,034.2,027.0,18.7,0000.0,0003.57,0002.32,0001.90
2023-11-08 19:16:00,SystemResetWarning,0832.2,5.00,000.00,025.7,024.3,000.0,034.2,027.0,18.8,0000.0,0003.55,0002.34,0001.93
2023-11-08 19:17:00,SystemResetWarning,0832.2,5.00,000.00,025.7,024.3,000.0,034.2,027.0,18.8,0000.0,0003.58,0002.37,0001.95
2023-11-08 19:18:00,SystemResetWarning,0832.2,5.00,000.00,025.6,024.3,000.0,034.2,026.9,18.9,0000.0,0003.61,0002.40,0001.98
2023-11-08 19:19:00,SystemResetWarning,0832.2,5.01,000.00,025.6,024.3,000.0,034.1,026.9,18.9,0000.0,0003.71,0002.46,0002.02
2023-11-08 19:20:00,SystemResetWarning,0832.2,5.00,000.00,025.6,024.3,000.0,034.1,026.9,19.0,0000.0,0003.84,0002.51,0002.05
2023-11-08 19:21:00,SystemResetWarning,0832.2,5.01,000.00,025.6,024.3,000.0,034.1,026.9,19.0,0000.0,0003.91,0002.57,0002.11
2023-11-08 19:22:00,SystemResetWarning,0832.2,5.00,000.00,025.6,024.3,000.0,034.1,026.9,19.0,0000.0,0003.91,0002.60,0002.15
2023-11-08 19:23:00,SystemResetWarning,0832.2,5.00,000.00,025.6,024.3,000.0,034.1,026.9,19.1,0000.0,0004.01,0002.65,0002.18
2023-11-08 19:24:00,SystemResetWarning,0832.2,5.00,000.00,025.5,024.2,000.0,034.1,026.9,19.1,0000.0,0003.76,0002.68,0002.22
2023-11-08 19:25:00,SystemResetWarning,0832.1,5.00,000.00,025.5,024.2,000.0,034.1,026.8,19.0,0000.0,0003.87,0002.73,0002.26
2023-11-08 19:26:00,SystemResetWarning,0832.1,5.00,000.00,025.5,024.2,000.0,034.0,026.8,19.0,0000.0,0003.86,0002.72,0002.27
2023-11-08 19:27:00,SystemResetWarning,0832.2,5.00,000.00,025.5,024.2,000.0,034.0,026.8,19.0,0000.0,0003.90,0002.74,0002.29
2023-11-08 19:28:00,SystemResetWarning,0832.2,5.00,000.00,025.5,024.1,000.0,034.0,026.8,19.1,0000.0,0003.95,0002.78,0002.31
2023-11-08 19:29:00,SystemResetWarning,0832.1,4.99,000.00,025.5,024.1,000.0,034.0,026.8,19.2,0000.0,0003.99,0002.82,0002.36
2023-11-08 19:30:00,SystemResetWarning,0832.2,4.99,000.00,025.4,024.1,000.0,034.0,026.7,19.2,0000.0,0003.93,0002.81,0002.36
2023-11-08 19:31:00,SystemResetWarning,0832.1,5.00,000.00,025.4,024.1,000.0,034.0,026.7,19.2,0000.0,0003.80,0002.80,0002.39
2023-11-08 19:32:00,SystemResetWarning,0832.1,5.00,000.00,025.4,024.1,000.0,034.0,026.7,19.2,0000.0,0003.75,0002.78,0002.38
2023-11-08 19:33:00,SystemResetWarning,0832.1,5.01,000.00,025.4,024.1,000.0,033.9,026.7,19.2,0000.0,0003.79,0002.82,0002.40
2023-11-08 19:34:00,SystemResetWarning,0832.1,5.00,000.00,025.4,024.1,000.0,033.9,026.7,19.3,0000.0,0003.74,0002.83,0002.43
2023-11-08 19:35:00,SystemResetWarning,0832.1,5.00,000.00,025.4,024.1,000.0,033.9,026.7,19.3,0000.0,0003.73,0002.84,0002.46
2023-11-08 19:36:00,SystemResetWarning,0832.1,5.00,000.00,025.4,024.1,000.0,033.9,026.7,19.3,0000.0,0003.67,0002.87,0002.50
2023-11-08 19:37:00,SystemResetWarning,0832.1,5.00,000.00,025.4,024.1,000.0,033.9,026.7,19.3,0000.0,0003.82,0002.94,0002.56
2023-11-08 19:38:00,SystemResetWarning,0832.2,5.00,000.00,025.4,024.1,000.0,033.9,026.7,19.4,0000.0,0003.94,0003.02,0002.60
2023-11-08 19:39:00,SystemResetWarning,0832.1,5.00,000.00,025.3,024.1,000.0,033.9,026.7,19.5,0000.0,0004.02,0003.09,0002.64
2023-11-08 19:40:00,SystemResetWarning,0832.1,4.99,000.00,025.3,024.1,000.0,033.9,026.7,19.5,0000.0,0004.07,0003.10,0002.66
2023-11-08 19:41:00,SystemResetWarning,0832.1,4.99,000.00,025.3,024.1,000.0,033.8,026.7,19.5,0000.0,0004.13,0003.12,0002.68
2023-11-08 19:42:00,SystemResetWarning,0832.1,5.00,000.00,025.3,024.1,000.0,033.8,026.7,19.5,0000.0,0004.26,0003.14,0002.70
2023-11-08 19:43:00,SystemResetWarning,0832.1,5.02,000.00,025.3,024.1,000.0,033.8,026.7,19.5,0000.0,0004.41,0003.14,0002.71
2023-11-08 19:44:00,SystemResetWarning,0832.1,5.01,000.00,025.3,024.1,000.0,033.8,026.7,19.5,0000.0,0004.51,0003.15,0002.71
2023-11-08 19:45:00,SystemResetWarning,0832.1,4.99,000.00,025.3,024.0,000.0,033.8,026.7,19.7,0000.0,0004.79,0003.16,0002.73
2023-11-08 19:46:00,SystemResetWarning,0832.0,4.99,000.00,025.3,024.1,000.0,033.8,026.7,19.8,0000.0,0005.08,0003.16,0002.73
2023-11-08 19:47:00,SystemResetWarning,0832.0,5.00,000.00,025.3,024.1,000.0,033.8,026.7,19.8,0000.0,0005.12,0003.17,0002.73
2023-11-08 19:48:00,SystemResetWarning,0832.0,5.00,000.00,025.3,024.1,000.0,033.8,026.7,19.7,0000.0,0004.99,0003.15,0002.72
2023-11-08 19:49:00,SystemResetWarning,0832.1,5.01,000.00,025.3,024.1,000.0,033.8,026.7,19.8,0000.0,0004.89,0003.13,0002.71
2023-11-08 19:50:00,SystemResetWarning,0832.0,5.00,000.00,025.3,024.1,000.0,033.8,026.7,19.7,0000.0,0005.11,0003.12,0002.71
2023-11-08 19:51:00,SystemResetWarning,0832.1,5.00,000.00,025.3,024.1,000.0,033.8,026.7,19.7,0000.0,0005.81,0003.13,0002.71
2023-11-08 19:52:00,SystemResetWarning,0832.1,4.99,000.00,025.3,024.1,000.0,033.8,026.7,19.8,0000.0,0005.78,0003.13,0002.72
2023-11-08 19:53:00,SystemResetWarning,0832.0,5.00,000.00,025.3,024.1,000.0,033.7,026.7,19.8,0000.0,0005.83,0003.16,0002.73
2023-11-08 19:54:00,SystemResetWarning,0832.0,5.00,000.00,025.3,024.2,000.0,033.7,026.7,19.7,0000.0,0005.81,0003.18,0002.75
2023-11-08 19:55:00,SystemResetWarning,0832.0,5.01,000.00,025.3,024.1,000.0,033.7,026.7,19.6,0000.0,0005.71,0003.19,0002.77
2023-11-08 19:56:00,SystemResetWarning,0832.0,5.01,000.00,025.3,024.1,000.0,033.7,026.7,19.5,0000.0,0005.66,0003.18,0002.77
2023-11-08 19:57:00,SystemResetWarning,0832.0,5.01,000.00,025.3,024.1,000.0,033.7,026.7,19.5,0000.0,0005.22,0003.19,0002.78
2023-11-08 19:58:00,SystemResetWarning,0832.0,5.01,000.00,025.3,024.1,000.0,033.7,026.7,19.6,0000.0,0005.28,0003.22,0002.80
2023-11-08 19:59:00,SystemResetWarning,0832.0,5.00,000.00,025.3,024.1,000.0,033.7,026.7,19.7,0000.0,0005.21,0003.22,0002.80
